Location: Unspecified
(0.0000°N, 0.0000°E)
Time: 16:19:47
(UTC+00:00)

X-37B - Pass Details

Date: 15 January 2021
Orbit: 383 x 391 km, 45.1° (Epoch: 22 January)

Event Time Altitude Azimuth Distance (km) Brightness Sun altitude
Exits shadow 04:20:22 16° 63° (ENE) 1,089 3.2 -25.3°
Drops below altitude 10° 04:21:55 10° 91° (E) 1,405 4.3 -24.9°
Sets 04:24:27 0° 112° (ESE) 2,260 5.9 -24.4°
